[[{"header":{"parameterUnit":"m.s-1","parameterCategory":1,"la1":30.2991,"la2":30.254,"lo1":-89.0895,"lo2":-89.0444,"dy":0.0017,"dx":0.0017,"nx":28,"ny":28,"refTime":"2024-04-06T21:00:00:Z","depth":0,"parameterNumber":2,"parameterNumberName":"U-component_of_WINDS"},"data":[0,0,0,0,0,0,0,0,0,0,0,0,0,0,0,0,0,0,0,0,0,0,0,0,0,0,0,0,0,0,0,0,0,0,0,0,0,0,0,0,0,0,0,0,0,0,0,0,0,0,0,0,0,0,0,0,0,0,-2.8562,-2.8562,0,-2.8563,-2.8563,-2.8563,-2.8536,-2.8535,-2.8534,-2.8533,-2.8533,-2.8534,-2.8535,0,0,0,0,0,0,0,0,0,0,0,0,0,-2.8537,-2.8537,-2.8562,-2.8562,-2.8562,-2.8563,-2.8563,-2.8563,-2.8536,-2.8535,-2.8534,-2.8533,-2.8533,-2.8534,-2.8535,0,0,0,0,0,0,0,0,0,0,0,0,0,-2.8544,-2.8537,-2.8562,-2.8548,-2.8547,-2.8563,-2.8563,-2.8563,-2.8536,-2.8535,-2.8534,-2.8533,-2.8533,-2.8534,-2.8535,-2.8563,0,0,-2.8538,-2.8538,0,0,0,0,0,0,0,0,-2.8543,-2.8544,-2.855,-2.8549,-2.8548,-2.8548,-2.8554,-2.8563,-2.8536,-2.854,-2.8533,-2.8532,-2.8539,-2.8539,-2.8542,-2.8563,-2.8563,-2.8538,-2.8539,-2.8539,-2.8539,0,0,0,0,0,0,0,-2.8543,-2.8544,-2.8562,-2.855,-2.8549,-2.8542,-2.8542,-2.8556,-2.8546,-2.854,-2.8538,-2.8538,-2.8538,-2.8541,-2.8542,-2.8563,-2.8538,-2.8539,-2.854,-2.854,-2.8609,-2.861,0,0,0,0,0,0,-2.8544,-2.8544,-2.8562,-2.8562,-2.8543,-2.8544,-2.8544,-2.8549,-2.8545,-2.8544,-2.8539,-2.8537,-2.854,-2.8541,-2.8542,-2.8575,-2.8539,-2.854,-2.8541,-2.8607,-2.8609,-2.861,0,0,0,0,0,0,-2.8544,-2.8546,-2.8562,-2.8553,-2.8554,-2.8545,-2.8552,-2.855,-2.8552,-2.8545,-2.8543,-2.8544,-2.8539,-2.854,-2.8558,-2.8574,-2.8541,-2.8541,-2.8606,-2.8608,-2.861,-2.8641,0,0,0,0,0,0,-2.8543,-2.8546,-2.8556,-2.8553,-2.8555,-2.8578,-2.8553,-2.855,-2.8554,-2.8552,-2.8549,-2.8548,-2.8538,-2.8557,-2.8559,-2.8575,-2.8542,-2.8604,-2.8607,-2.8609,-2.8639,-2.8644,-2.8648,0,0,0,0,0,-2.8542,-2.8564,-2.8557,-2.8559,-2.8567,-2.8579,-2.858,-2.857,-2.8556,-2.8566,-2.8562,-2.8548,-2.8573,-2.8559,-2.8561,-2.8578,-2.8603,-2.8606,-2.8609,-2.8636,-2.8643,-2.8648,0,0,0,0,0,0,-2.8569,-2.8564,-2.8555,-2.8577,-2.8579,-2.8575,-2.8587,-2.8577,-2.8582,-2.8579,-2.8565,-2.8565,-2.8585,-2.8584,-2.8568,-2.8606,-2.8586,-2.8589,-2.8606,-2.8612,-2.8617,-2.8616,-2.8543,0,0,0,0,0,-2.8577,-2.8588,-2.8583,-2.8602,-2.8604,-2.8596,-2.8601,-2.8592,-2.8594,-2.8594,-2.8591,-2.8592,-2.8601,-2.8606,-2.8614,-2.8639,-2.8638,-2.8652,-2.8657,-2.8661,-2.8663,-2.8677,-2.8683,-2.8619,-2.8619,-2.8619,0,0,-2.8595,-2.8593,-2.86,-2.8608,-2.8608,-2.8619,-2.8596,-2.8609,-2.8617,-2.8596,-2.8613,-2.8611,-2.8612,-2.8634,-2.8643,-2.8633,-2.8681,-2.8664,-2.8667,-2.8668,-2.8681,-2.8687,-2.8692,-2.8621,-2.8621,-2.862,0,0,-2.8632,-2.8632,-2.8649,-2.865,-2.8652,-2.8647,-2.8651,-2.8649,-2.8647,-2.8664,-2.8649,-2.8659,-2.8673,-2.8675,-2.8678,-2.8719,-2.8706,-2.8722,-2.8746,-2.876,-2.8765,-2.8769,-2.8784,-2.8789,-2.8724,-2.8725,-2.8725,0,-2.8653,-2.8669,-2.8659,-2.8672,-2.8676,-2.866,-2.8677,-2.8679,-2.8683,-2.8686,-2.8675,-2.8694,-2.8693,-2.8716,-2.8726,-2.8729,-2.8733,-2.8721,-2.8765,-2.877,-2.8774,-2.8787,-2.8793,-2.8726,-2.8726,-2.8726,-2.8726,0,-2.8695,-2.8707,-2.872,-2.8725,-2.8731,-2.8746,-2.8739,-2.8746,-2.8739,-2.8735,-2.8753,-2.8752,-2.876,-2.8765,-2.8757,-2.8787,-2.878,-2.8768,-2.8747,-2.8782,-2.8794,-2.8799,-2.8729,-2.8728,-2.8728,-2.8727,0,0,-2.8746,-2.8747,-2.8752,-2.8755,-2.8757,-2.8765,-2.8781,-2.8789,-2.8796,-2.88,-2.8812,-2.8826,-2.8815,-2.8818,-2.8811,-2.8823,-2.8856,-2.8809,-2.8809,-2.8817,-2.889,-2.8898,-2.8905,-2.8849,-2.885,-2.885,-2.8889,0,-2.8782,-2.8808,-2.8801,-2.8827,-2.8838,-2.8823,-2.8837,-2.884,-2.8838,-2.8847,-2.8844,-2.8854,-2.8839,-2.8841,-2.8853,-2.885,-2.887,-2.8847,-2.886,-2.886,-2.8859,-2.8911,-2.892,-2.8957,-2.8894,-2.8895,-2.8896,0,-2.8826,-2.8833,-2.8861,-2.8863,-2.8867,-2.8879,-2.8887,-2.8896,-2.8899,-2.8897,-2.8902,-2.8893,-2.8908,-2.8889,-2.8911,-2.8895,-2.89,-2.89,-2.8901,-2.8901,-2.8879,-2.8912,-2.8968,-2.8974,-2.8903,-2.8903,-2.8902,0,-2.8861,-2.8877,-2.8896,-2.8899,-2.8901,-2.891,-2.8912,-2.8914,-2.892,-2.8927,-2.8931,-2.8939,-2.8944,-2.8951,-2.8944,-2.8931,-2.8967,-2.8947,-2.8965,-2.8965,-2.8972,-2.8971,-2.903,-2.8977,-2.8977,-2.8977,-2.8977,0,-2.8901,-2.8918,-2.8912,-2.8923,-2.8943,-2.8935,-2.8955,-2.8954,-2.8957,-2.8969,-2.8957,-2.8968,-2.8959,-2.897,-2.8965,-2.8984,-2.8986,-2.8984,-2.8983,-2.8985,-2.8985,-2.8987,-2.8984,-2.8979,-2.8978,-2.8978,-2.8978,0,-2.8942,-2.8938,-2.8958,-2.8959,-2.896,-2.8974,-2.8976,-2.8987,-2.8985,-2.8999,-2.9002,-2.8999,-2.9011,-2.9006,-2.9018,-2.9015,-2.9039,-2.9034,-2.9038,-2.9036,-2.9054,-2.9053,-2.9115,-2.9123,-2.9066,-2.9067,-2.9067,0,-2.8967,-2.898,-2.8984,-2.8991,-2.8993,-2.9005,-2.9012,-2.9005,-2.9012,-2.9018,-2.9029,-2.904,-2.9048,-2.9068,-2.9067,-2.9077,-2.9072,-2.9093,-2.9073,-2.9075,-2.9071,-2.907,-2.9072,-2.9096,-2.9097,-2.9098,-2.9098,0,-2.9012,-2.901,-2.902,-2.903,-2.9038,-2.9045,-2.9052,-2.9058,-2.9052,-2.9061,-2.9073,-2.908,-2.9094,-2.9105,-2.9114,-2.9116,-2.9106,-2.9105,-2.9109,-2.9111,-2.9112,-2.9112,-2.9048,-2.9103,-2.9102,-2.9102,-2.9102,-2.9102,-2.9046,-2.9057,-2.9062,-2.9074,-2.9078,-2.9085,-2.9095,-2.9095,-2.9106,-2.9117,-2.9113,-2.9127,-2.9132,-2.9143,-2.9147,-2.9158,-2.915,-2.9156,-2.9158,-2.9159,-2.9162,-2.9112,-2.916,-2.916,-2.9159,-2.9159,-2.9159,0,-2.909,-2.9093,-2.9104,-2.9114,-2.9123,-2.9115,-2.9122,-2.913,-2.9144,-2.9149,-2.9158,-2.9173,-2.9185,-2.9185,-2.9196,-2.9205,-2.9201,-2.9208,-2.9207,-2.9208,-2.9169,-2.9163,-2.9212,-2.9212,-2.9212,-2.9212,-2.9212,-2.9212,-2.9114,-2.9134,-2.9133,-2.9155,-2.9157,-2.9172,-2.9177,-2.9183,-2.9188,-2.9205,-2.9215,-2.9216,-2.922,-2.9231,-2.9241,-2.9241,-2.9245,-2.9254,-2.9252,-2.9216,-2.921,-2.9205,-2.92,-2.9255,-2.9255,-2.929,-2.9291,-2.9291]},{"header":{"parameterUnit":"m.s-1","parameterCategory":1,"la1":30.2991,"la2":30.254,"lo1":-89.0895,"lo2":-89.0444,"dy":0.0017,"dx":0.0017,"nx":28,"ny":28,"refTime":"2024-04-06T21:00:00:Z","depth":0,"parameterNumber":3,"parameterNumberName":"V-component_of_WINDS"},"data":[0,0,0,0,0,0,0,0,0,0,0,0,0,0,0,0,0,0,0,0,0,0,0,0,0,0,0,0,0,0,0,0,0,0,0,0,0,0,0,0,0,0,0,0,0,0,0,0,0,0,0,0,0,0,0,0,0,0,4.4529,4.453,0,4.4579,4.458,4.458,4.4587,4.4586,4.4586,4.4585,4.4632,4.4634,4.4635,0,0,0,0,0,0,0,0,0,0,0,0,0,4.4436,4.4437,4.4529,4.453,4.4531,4.4579,4.458,4.4581,4.4587,4.4586,4.4586,4.4585,4.4631,4.4633,4.4635,0,0,0,0,0,0,0,0,0,0,0,0,0,4.448,4.4438,4.4529,4.454,4.4541,4.4579,4.458,4.4581,4.4587,4.4586,4.4586,4.4585,4.4631,4.4633,4.4636,4.4665,0,0,4.4643,4.4644,0,0,0,0,0,0,0,0,4.4477,4.4483,4.4538,4.4539,4.4541,4.4576,4.4564,4.4609,4.4587,4.4569,4.4585,4.4585,4.4614,4.4617,4.4628,4.4667,4.4669,4.4643,4.4645,4.4646,4.4647,0,0,0,0,0,0,0,4.4474,4.4481,4.4549,4.4538,4.454,4.4541,4.4546,4.4572,4.4595,4.4571,4.4572,4.4578,4.4614,4.4626,4.4629,4.467,4.4643,4.4646,4.4647,4.4648,4.4737,4.4738,0,0,0,0,0,0,4.447,4.4479,4.4547,4.455,4.4507,4.4543,4.4549,4.4565,4.4594,4.4598,4.4578,4.4578,4.4622,4.4626,4.4631,4.4669,4.4646,4.4648,4.465,4.4736,4.4737,4.4738,0,0,0,0,0,0,4.4468,4.4476,4.4545,4.4515,4.4524,4.4545,4.4564,4.4567,4.4578,4.46,4.4604,4.4586,4.4621,4.4627,4.4657,4.467,4.465,4.4652,4.4735,4.4736,4.4737,4.4743,0,0,0,0,0,0,4.4465,4.4475,4.4487,4.4515,4.4525,4.4572,4.4564,4.4568,4.4583,4.4583,4.4608,4.4612,4.4621,4.4653,4.466,4.4673,4.4654,4.4734,4.4735,4.4737,4.4742,4.4745,4.4747,0,0,0,0,0,4.4462,4.4486,4.4488,4.4496,4.4541,4.4572,4.4578,4.459,4.4584,4.4596,4.461,4.4611,4.4668,4.4656,4.4663,4.4678,4.4733,4.4735,4.4737,4.4741,4.4744,4.4747,0,0,0,0,0,0,4.4457,4.4489,4.4492,4.4526,4.4547,4.4574,4.4589,4.4593,4.4614,4.4613,4.4625,4.4631,4.466,4.4672,4.4659,4.4709,4.47,4.4703,4.47,4.4704,4.4706,4.4703,4.4656,0,0,0,0,0,4.446,4.4484,4.4511,4.4538,4.4548,4.4567,4.4581,4.4589,4.461,4.4618,4.4634,4.4653,4.4676,4.469,4.4712,4.4744,4.4749,4.4757,4.4759,4.4761,4.4764,4.4783,4.4787,4.4744,4.4744,4.4744,0,0,4.4466,4.4487,4.4501,4.4537,4.4554,4.4578,4.4574,4.4599,4.4617,4.4621,4.4651,4.4664,4.4686,4.4717,4.4732,4.4728,4.4778,4.4764,4.4765,4.4767,4.4786,4.479,4.4793,4.4745,4.4745,4.4745,0,0,4.449,4.4508,4.4534,4.4551,4.4578,4.459,4.4596,4.4623,4.4632,4.4663,4.4667,4.4687,4.4725,4.4742,4.4755,4.4786,4.4788,4.4793,4.4806,4.4824,4.4827,4.483,4.4843,4.4847,4.4796,4.4796,4.4796,0,4.4494,4.4532,4.4546,4.4572,4.4588,4.4595,4.462,4.4636,4.4667,4.4678,4.4673,4.4722,4.4738,4.4774,4.4782,4.4792,4.4799,4.479,4.4826,4.4829,4.4832,4.4844,4.4849,4.4796,4.4796,4.4796,4.4796,0,4.4536,4.4562,4.4579,4.4612,4.4629,4.4655,4.4672,4.4688,4.4694,4.4707,4.4738,4.4757,4.4784,4.4792,4.4798,4.4829,4.4826,4.4824,4.4815,4.4837,4.4848,4.4853,4.4797,4.4797,4.4797,4.4796,0,0,4.4557,4.4599,4.4605,4.4621,4.4651,4.4671,4.4696,4.4724,4.4738,4.4759,4.4781,4.4814,4.4813,4.4827,4.4835,4.4851,4.4876,4.4846,4.4847,4.4852,4.4913,4.4916,4.4921,4.4877,4.4878,4.4879,4.4912,0,4.4586,4.4634,4.4648,4.4688,4.4713,4.472,4.4743,4.4763,4.4776,4.4797,4.4811,4.4834,4.483,4.4839,4.4855,4.487,4.4889,4.4867,4.4897,4.4898,4.4893,4.4927,4.4929,4.496,4.4916,4.4917,4.4918,0,4.4625,4.465,4.4693,4.4722,4.4733,4.4753,4.478,4.4801,4.4824,4.4832,4.485,4.4856,4.4883,4.4873,4.4909,4.4894,4.4907,4.4916,4.4918,4.4922,4.491,4.4932,4.497,4.4974,4.4924,4.4924,4.4923,0,4.4638,4.4682,4.4714,4.4727,4.4761,4.4775,4.479,4.4813,4.4829,4.4852,4.4863,4.4888,4.4902,4.492,4.4933,4.4924,4.4969,4.4959,4.4976,4.4976,4.4986,4.4985,4.5027,4.4993,4.4993,4.4993,4.4993,0,4.4669,4.4695,4.4721,4.4741,4.4771,4.4786,4.4814,4.4829,4.485,4.4872,4.4879,4.4899,4.4914,4.4936,4.4946,4.4976,4.4981,4.4988,4.4991,4.4988,4.4988,4.4997,4.4996,4.4994,4.4994,4.4993,4.4993,0,4.4689,4.4707,4.4743,4.4773,4.4781,4.4802,4.4827,4.4846,4.4859,4.4887,4.4895,4.4915,4.4942,4.4956,4.4989,4.4996,4.5029,4.503,4.5022,4.5023,4.504,4.5038,4.5089,4.5097,4.5057,4.5058,4.5058,0,4.4707,4.4728,4.4762,4.4778,4.4794,4.4819,4.4837,4.4852,4.487,4.4899,4.4915,4.4942,4.4965,4.5007,4.5024,4.5049,4.5051,4.5067,4.5055,4.5052,4.5053,4.5052,4.5054,4.507,4.507,4.507,4.5071,0,4.4739,4.4748,4.4774,4.4803,4.4824,4.4847,4.487,4.4883,4.4902,4.4921,4.495,4.4968,4.5003,4.503,4.5057,4.507,4.5074,4.5075,4.508,4.5078,4.5073,4.5077,4.5029,4.5073,4.5073,4.5073,4.5073,4.5073,4.476,4.478,4.4807,4.4836,4.4855,4.4877,4.4897,4.4914,4.4938,4.4969,4.4976,4.5007,4.503,4.5067,4.5081,4.5105,4.5101,4.5109,4.5111,4.5113,4.5114,4.5069,4.5109,4.5109,4.5109,4.5109,4.5109,0,4.4793,4.4812,4.4838,4.4871,4.4894,4.4897,4.4923,4.4941,4.4968,4.4991,4.5014,4.5047,4.5074,4.5094,4.5121,4.5136,4.5138,4.5142,4.5142,4.5145,4.5115,4.5108,4.514,4.514,4.514,4.514,4.514,4.514,4.4813,4.4848,4.4859,4.4903,4.4921,4.4952,4.4967,4.4987,4.5005,4.5042,4.5066,4.5079,4.51,4.5129,4.5154,4.5159,4.5169,4.5173,4.5179,4.515,4.5147,4.5144,4.5138,4.5175,4.5175,4.5207,4.5207,4.5207]}]]